THOR ABLESTAR DEB, 2620

Orbit data source: Space-Track

THOR ABLESTAR DEB, 2620 is space debris in LEO originally from a launch on Thu, 05 Dec 1963 UTC launched from the Air Force Western Test Range (AFWTR). Debris objects in space refer to the collection of defunct objects orbiting the Earth. Examples of debris include non-operational satellites, rocket bodies, and fragments generated from explosions, collisions, or faulty payload assembly.

Loading next visibility...
Identifier
2620, 1963-049H
Orbit
LEO
Country
Flag of USUS
Related business
Manufacturer
Unknown
Mission
Spacecraft
Bus & Motor
Unknown
Mass
Unknown
Launch date (UTC)
1963-12-05 (62 years ago)
Launch vehicle
Unknown
Launch site
Air Force Western Test Range (AFWTR)
Object type
Payload
Rocket body
Debris
Shape & HBR
Unknown shape, 0.1 m
Radar Cross Section
Small (<0.1 m²)

Expand to show TLE details & history
Last TLE update: 16 hours ago

TLE from 16 hours ago
0 THOR ABLESTAR DEB
1 02620U 63049H   26036.03773051  .00000272  00000-0  35338-3 0  9991
2 02620  89.9123  73.6381 0017077 121.5970 265.7820 13.59689446 72430
Epoch: 2026-02-05T00:54Z
TLE epoch observation values (Epoch: 2026-02-05T00:54:19.916Z)
Latitude
27.21988°
Longitude
-75.09571°
Altitude
1,041.169 km
Speed
7.333 km/s
True Right ascension
04h 54m 43s
True Declination
27° 05' 08"
Sunlit
Object was in daylight at epoch
Visualization orbit readout
Latitude
Unknown
Longitude
Unknown
Altitude
Unknown
Speed
Unknown
Apparent Right ascension
Unknown
Apparent Declination
Unknown
Sunlit
N/A
Visualization observer readout
Local Sidereal Time
19:06:21
Azimuth
Unknown
Elevation
Unknown
Doppler factor
Unknown
Orbital elements
Apogee altitude
1,046.514 km
Perigee altitude
1,021.199 km
Semi-major axis
7,411.994 km
Eccentricity
0.00171
Inclination
89.9123°
RAAN
73.6381°
Arg. of periapsis
121.597°
True anomaly
265.58687°
Mean anomaly
265.782°
Eccentric anomaly
265.68443°
Mean motion
3.40127 °/min
Orbital period
105.84 mins
BSTAR
0.00035338
Loading maneuver chart data...
Computing Atmospheric mass density...
Loading historical data...
Loading historical data...
Loading historical data...
Loading historical data...
Loading historical data...
Loading historical data...
Loading historical data...

Documentation

Showing up to 5 results
|